Jackson, KY

6:11 PM EST on November 11, 2019 (GMT -0500)
Carroll

Weather History for KJKL - September, 2019

Change the Weather History Date:

Sunday, September 29, 2019

  Actual Average Record
Temperature  
Mean Temperature 83 °F 63 °F  
Max Temperature 95 °F 73 °F 95 °F (2019)
Min Temperature 70 °F 53 °F 41 °F (1984)
Degree Days  
Heating Degree Days 0 4  
Month to date heating degree days 0 45  
Since 1 July heating degree days 0 47  
Cooling Degree Days 18 2  
Month to date cooling degree days 347 142  
Year to date cooling degree days 1484 1120  
Growing Degree Days 30 (Base 50)    
Moisture  
Dew Point 64 °F    
Average Humidity 64    
Maximum Humidity 90    
Minimum Humidity 38    
Precipitation  
Precipitation 0.00 in 0.11 in 1.24 in (1987)
Month to date precipitation T 3.34  
Year to date precipitation 39.46 36.89  
Snow  
Snow 0.00 in 0.00 in - ()
Month to date snowfall 0.0 0.0  
Since 1 July snowfall 0.0 0.0  
Since 1 September snowfall 0.0 0.0  
Snow Depth 0.00 in    
Sea Level Pressure  
Sea Level Pressure 30.16 in    
Wind  
Wind Speed 1 mph (SW)    
Max Wind Speed 7 mph    
Max Gust Speed 13 mph    
Visibility 10 miles    
Events      
T = Trace of Precipitation, MM = Missing Value Source: NWS Daily Summary

Daily Weather History Graph

Daily Weather History Graph

Search for Another Location

Airport or City:

Astronomy

Sep. 29, 2019 Rise Set
Actual Time 7:26 AM EDT 7:19 PM EDT
Civil Twilight 7:00 AM EDT 7:45 PM EDT
Nautical Twilight 6:30 AM EDT 8:16 PM EDT
Astronomical Twilight 5:59 AM EDT 8:46 PM EDT
Moon 8:16 AM EDT (9/29) 8:20 PM EDT (9/29)
Length of Visible Light 12h 45m
Length of Day
11h 52m
New Moon, 1% of the Moon is Illuminated
Sep 29
New Moon
Oct 5
First Quarter
Oct 13
Full
Oct 21
Last Quarter
Oct 27
New

Hourly Weather History & Observations

Time (EDT) Temp. Heat Index Dew Point Humidity Pressure Visibility Wind Dir Wind Speed Gust Speed Precip Events Conditions
12:53 AM 75.9 °F - 64.0 °F 67% 30.13 in 10.0 mi Variable 3.5 mph - N/A   Clear
1:53 AM 77.0 °F - 63.0 °F 62% 30.14 in 10.0 mi WNW 4.6 mph - N/A   Clear
2:53 AM 73.0 °F - 64.9 °F 76% 30.16 in 10.0 mi Calm Calm - N/A   Partly Cloudy
3:53 AM 73.9 °F - 64.9 °F 73% 30.14 in 10.0 mi Calm Calm - N/A   Clear
4:53 AM 71.1 °F - 64.9 °F 81% 30.15 in 10.0 mi South 3.5 mph - N/A   Clear
5:53 AM 71.1 °F - 64.9 °F 81% 30.16 in 10.0 mi Calm Calm - N/A   Clear
6:53 AM 71.1 °F - 66.0 °F 84% 30.18 in 10.0 mi South 3.5 mph - N/A   Scattered Clouds
7:53 AM 70.0 °F - 66.0 °F 87% 30.20 in 10.0 mi South 3.5 mph - N/A   Clear
8:53 AM 73.0 °F - 66.0 °F 79% 30.21 in 10.0 mi Calm Calm - N/A   Clear
9:53 AM 75.9 °F - 66.9 °F 74% 30.22 in 10.0 mi Calm Calm - N/A   Clear
10:53 AM 82.0 °F 84.5 °F 66.9 °F 60% 30.22 in 10.0 mi Variable 3.5 mph - N/A   Clear
11:53 AM 87.1 °F 88.9 °F 64.9 °F 48% 30.21 in 10.0 mi Calm Calm - N/A   Clear
12:53 PM 89.1 °F 90.3 °F 64.0 °F 43% 30.19 in 10.0 mi Calm Calm - N/A   Clear
2:53 PM 91.0 °F 91.9 °F 63.0 °F 39% 30.15 in 10.0 mi Calm Calm - N/A   Scattered Clouds
3:53 PM 91.0 °F 91.9 °F 63.0 °F 39% 30.13 in 10.0 mi Variable 3.5 mph - N/A   Scattered Clouds
4:53 PM 90.0 °F 90.3 °F 62.1 °F 39% 30.12 in 10.0 mi Calm Calm - N/A   Mostly Cloudy
5:53 PM 91.0 °F 91.5 °F 62.1 °F 38% 30.12 in 10.0 mi WNW 3.5 mph - N/A   Clear
6:53 PM 88.0 °F 88.4 °F 62.1 °F 42% 30.12 in 10.0 mi Calm Calm - N/A   Clear
7:53 PM 87.1 °F 87.5 °F 62.1 °F 43% 30.13 in 10.0 mi Calm Calm - N/A   Mostly Cloudy
8:53 PM 82.9 °F 84.4 °F 64.0 °F 53% 30.15 in 10.0 mi Calm Calm - N/A   Scattered Clouds
9:53 PM 82.0 °F 83.8 °F 64.9 °F 56% 30.16 in 10.0 mi Calm Calm - N/A   Clear
10:53 PM 80.1 °F 81.9 °F 64.9 °F 60% 30.16 in 10.0 mi Calm Calm - N/A   Clear
11:53 PM 79.0 °F - 66.0 °F 64% 30.15 in 10.0 mi Calm Calm - N/A   Clear